Hourly Weather Alimtau

Today, 4 March, Thursday

Time Temperature Precipitation Wind Pressure Humidity
00:00 +9°C° 0 mm 1 mps 728 mmHg 73%
01:00 +8°C° 0 mm 2 mps 728 mmHg 70%
02:00 +8°C° 0 mm 2 mps 727 mmHg 67%
03:00 +8°C° 0 mm 2 mps 727 mmHg 66%
04:00 +8°C° 0 mm 2 mps 727 mmHg 65%
05:00 +7°C° 0 mm 3 mps 727 mmHg 64%
06:00 +7°C° 0 mm 3 mps 727 mmHg 66%
07:00 +7°C° 0 mm 2 mps 727 mmHg 67%
08:00 +8°C° 0 mm 2 mps 727 mmHg 68%
09:00 +8°C° 0 mm 4 mps 727 mmHg 64%
10:00 +10°C° 0 mm 6 mps 727 mmHg 59%
11:00 +12°C° 0 mm 7 mps 727 mmHg 55%
12:00 +12°C° 0.1 mm 7 mps 727 mmHg 54%
13:00 +14°C° 0.1 mm 6 mps 727 mmHg 53%
14:00 +15°C° 0.1 mm 6 mps 726 mmHg 52%
15:00 +14°C° 0.4 mm 5 mps 726 mmHg 53%
16:00 +14°C° 0.4 mm 3 mps 726 mmHg 55%
17:00 +14°C° 0.4 mm 2 mps 726 mmHg 56%
18:00 +12°C° 0.6 mm 3 mps 726 mmHg 64%
19:00 +10°C° 0.6 mm 3 mps 726 mmHg 73%
20:00 +9°C° 0.6 mm 3 mps 727 mmHg 81%
21:00 +7°C° 1.8 mm 4 mps 728 mmHg 85%
22:00 +6°C° 1.8 mm 5 mps 728 mmHg 88%
23:00 +4°C° 1.8 mm 6 mps 729 mmHg 92%

Tomorrow, 5 March, Friday

Time Temperature Precipitation Wind Pressure Humidity
00:00 +3°C° 1.3 mm 5 mps 730 mmHg 93%
01:00 +2°C° 1.3 mm 5 mps 731 mmHg 93%
02:00 +1°C° 1.3 mm 4 mps 732 mmHg 94%
03:00 +2°C° 0.1 mm 3 mps 733 mmHg 91%
04:00 +3°C° 0.1 mm 2 mps 734 mmHg 89%
05:00 +3°C° 0.1 mm 2 mps 735 mmHg 86%
06:00 +3°C° 0 mm 2 mps 736 mmHg 84%
07:00 +4°C° 0 mm 1 mps 736 mmHg 82%
08:00 +4°C° 0 mm 1 mps 736 mmHg 80%
09:00 +6°C° 0 mm 1 mps 736 mmHg 71%
10:00 +7°C° 0 mm 1 mps 736 mmHg 62%
11:00 +8°C° 0 mm 1 mps 735 mmHg 53%
12:00 +8°C° 0 mm 2 mps 735 mmHg 49%
13:00 +9°C° 0 mm 2 mps 734 mmHg 44%
14:00 +10°C° 0 mm 2 mps 734 mmHg 39%
15:00 +9°C° 0 mm 3 mps 733 mmHg 41%
16:00 +9°C° 0 mm 3 mps 733 mmHg 44%
17:00 +9°C° 0 mm 3 mps 732 mmHg 46%
18:00 +8°C° 0 mm 3 mps 732 mmHg 53%
19:00 +5°C° 0 mm 3 mps 732 mmHg 60%
20:00 +4°C° 0 mm 3 mps 731 mmHg 67%
21:00 +3°C° 0 mm 3 mps 731 mmHg 63%
22:00 +3°C° 0 mm 3 mps 730 mmHg 60%
23:00 +3°C° 0 mm 3 mps 729 mmHg 56%

Day after tomorrow, 6 March, Saturday

Time Temperature Precipitation Wind Pressure Humidity
00:00 +3°C° 0 mm 3 mps 729 mmHg 54%
01:00 +3°C° 0 mm 3 mps 728 mmHg 51%
02:00 +3°C° 0 mm 3 mps 727 mmHg 49%
03:00 +4°C° 0 mm 2 mps 726 mmHg 47%
04:00 +4°C° 0 mm 2 mps 726 mmHg 45%
05:00 +4°C° 0 mm 2 mps 725 mmHg 42%
06:00 +5°C° 0 mm 2 mps 725 mmHg 42%
07:00 +5°C° 0 mm 2 mps 724 mmHg 42%
08:00 +5°C° 0 mm 2 mps 724 mmHg 42%
09:00 +7°C° 0 mm 3 mps 723 mmHg 39%
10:00 +10°C° 0 mm 3 mps 723 mmHg 35%
11:00 +12°C° 0 mm 3 mps 723 mmHg 32%
12:00 +12°C° 0 mm 3 mps 722 mmHg 35%
13:00 +12°C° 0 mm 3 mps 722 mmHg 38%
14:00 +12°C° 0 mm 3 mps 722 mmHg 41%
15:00 +11°C° 0 mm 3 mps 722 mmHg 45%
16:00 +10°C° 0 mm 3 mps 723 mmHg 49%
17:00 +10°C° 0 mm 2 mps 723 mmHg 52%
18:00 +9°C° 0 mm 2 mps 723 mmHg 55%
19:00 +8°C° 0 mm 2 mps 723 mmHg 57%
20:00 +7°C° 0 mm 2 mps 723 mmHg 59%
21:00 +7°C° 0 mm 2 mps 723 mmHg 60%
22:00 +7°C° 0 mm 2 mps 724 mmHg 61%
23:00 +7°C° 0 mm 2 mps 724 mmHg 62%

7 March, Sunday

Time Temperature Precipitation Wind Pressure Humidity
00:00 +7°C° 0 mm 3 mps 724 mmHg 63%
01:00 +5°C° 0 mm 3 mps 724 mmHg 64%
02:00 +5°C° 0 mm 3 mps 725 mmHg 65%
03:00 +5°C° 0.4 mm 3 mps 725 mmHg 69%
04:00 +4°C° 0.4 mm 4 mps 725 mmHg 73%
05:00 +4°C° 0.4 mm 4 mps 726 mmHg 77%
06:00 +3°C° 0.6 mm 5 mps 726 mmHg 81%
07:00 +5°C° 0.6 mm 5 mps 727 mmHg 85%
08:00 +4°C° 0.6 mm 6 mps 727 mmHg 89%
09:00 +4°C° 0.2 mm 6 mps 727 mmHg 88%
10:00 +4°C° 0.2 mm 6 mps 727 mmHg 87%
11:00 +4°C° 0.2 mm 6 mps 728 mmHg 86%
12:00 +6°C° 0.1 mm 5 mps 728 mmHg 84%
13:00 +6°C° 0.1 mm 5 mps 727 mmHg 83%
14:00 +6°C° 0.1 mm 4 mps 727 mmHg 81%
15:00 +8°C° 0 mm 3 mps 727 mmHg 79%
16:00 +8°C° 0 mm 3 mps 727 mmHg 78%
17:00 +8°C° 0 mm 2 mps 727 mmHg 76%
18:00 +8°C° 0 mm 1 mps 727 mmHg 79%
19:00 +7°C° 0 mm 1 mps 727 mmHg 81%
20:00 +6°C° 0 mm 0 mps 727 mmHg 84%
21:00 +6°C° 0 mm 1 mps 726 mmHg 83%
22:00 +6°C° 0 mm 1 mps 726 mmHg 82%
23:00 +6°C° 0 mm 1 mps 726 mmHg 81%

8 March, Monday

Time Temperature Precipitation Wind Pressure Humidity
00:00 +6°C° 0 mm 1 mps 726 mmHg 80%
01:00 +6°C° 0 mm 1 mps 725 mmHg 78%
02:00 +6°C° 0 mm 1 mps 725 mmHg 77%
03:00 +6°C° 0 mm 1 mps 725 mmHg 76%
04:00 +6°C° 0 mm 1 mps 725 mmHg 75%
05:00 +6°C° 0 mm 1 mps 725 mmHg 73%
06:00 +6°C° 0 mm 1 mps 725 mmHg 72%
07:00 +7°C° 0 mm 1 mps 725 mmHg 70%
08:00 +7°C° 0 mm 1 mps 725 mmHg 69%
09:00 +8°C° 0 mm 2 mps 726 mmHg 63%
10:00 +9°C° 0 mm 2 mps 726 mmHg 58%
11:00 +11°C° 0 mm 3 mps 726 mmHg 52%
12:00 +12°C° 0 mm 3 mps 726 mmHg 51%
13:00 +13°C° 0 mm 3 mps 726 mmHg 49%
14:00 +14°C° 0 mm 3 mps 726 mmHg 48%
15:00 +14°C° 0 mm 3 mps 726 mmHg 49%
16:00 +14°C° 0 mm 2 mps 726 mmHg 51%
17:00 +14°C° 0 mm 2 mps 726 mmHg 52%
18:00 +13°C° 0 mm 2 mps 726 mmHg 55%
19:00 +12°C° 0 mm 1 mps 727 mmHg 58%
20:00 +11°C° 0 mm 1 mps 727 mmHg 61%
21:00 +10°C° 0 mm 1 mps 727 mmHg 61%
22:00 +9°C° 0 mm 2 mps 727 mmHg 61%
23:00 +9°C° 0 mm 2 mps 727 mmHg 62%

9 March, Tuesday

Time Temperature Precipitation Wind Pressure Humidity
00:00 +8°C° 0 mm 2 mps 727 mmHg 61%
01:00 +8°C° 0 mm 2 mps 727 mmHg 61%
02:00 +8°C° 0 mm 2 mps 726 mmHg 60%
03:00 +8°C° 0 mm 2 mps 726 mmHg 60%
04:00 +9°C° 0 mm 1 mps 726 mmHg 59%
05:00 +9°C° 0 mm 1 mps 726 mmHg 59%
06:00 +9°C° 0 mm 1 mps 726 mmHg 59%
07:00 +9°C° 0 mm 1 mps 726 mmHg 60%
08:00 +9°C° 0 mm 1 mps 726 mmHg 60%
09:00 +10°C° 0 mm 2 mps 725 mmHg 56%
10:00 +13°C° 0 mm 2 mps 725 mmHg 51%
11:00 +15°C° 0 mm 2 mps 725 mmHg 46%
12:00 +16°C° 0 mm 2 mps 724 mmHg 45%
13:00 +16°C° 0 mm 2 mps 724 mmHg 43%
14:00 +17°C° 0 mm 2 mps 724 mmHg 42%
15:00 +17°C° 0 mm 2 mps 724 mmHg 46%
16:00 +16°C° 0 mm 2 mps 724 mmHg 50%
17:00 +15°C° 0 mm 2 mps 724 mmHg 54%
18:00 +13°C° 0.1 mm 3 mps 724 mmHg 62%
19:00 +11°C° 0.1 mm 4 mps 724 mmHg 70%
20:00 +9°C° 0.1 mm 5 mps 724 mmHg 78%
21:00 +10°C° 0 mm 4 mps 724 mmHg 79%
22:00 +9°C° 0 mm 3 mps 724 mmHg 80%
23:00 +9°C° 0 mm 2 mps 723 mmHg 82%
Show more